TimeCST,TemperatureF,Dew PointF,Humidity,Sea Level PressureIn,VisibilityMPH,Wind Direction,Wind SpeedMPH,Gust SpeedMPH,PrecipitationIn,Events,Conditions,WindDirDegrees,DateUTC
12:52 AM,17.1,8.1,68,30.32,-9999.0,North,9.2,-,N/A,,Unknown,350,2014-02-02 06:52:00
1:52 AM,15.1,6.1,68,30.35,-9999.0,Variable,5.8,-,N/A,,Unknown,0,2014-02-02 07:52:00
2:52 AM,12.9,6.1,74,30.36,-9999.0,NNW,3.5,-,N/A,,Unknown,330,2014-02-02 08:52:00
3:52 AM,12.9,3.9,67,30.38,-9999.0,North,5.8,-,N/A,,Unknown,350,2014-02-02 09:52:00
4:52 AM,10.9,3.0,70,30.40,-9999.0,NNW,6.9,-,N/A,,Unknown,340,2014-02-02 10:52:00
5:52 AM,9.0,1.0,70,30.41,-9999.0,North,3.5,-,N/A,,Unknown,350,2014-02-02 11:52:00
6:52 AM,5.0,-0.9,76,30.43,-9999.0,NNW,4.6,-,N/A,,Unknown,340,2014-02-02 12:52:00
7:52 AM,6.1,-0.9,73,30.45,-9999.0,NNW,4.6,-,N/A,,Unknown,340,2014-02-02 13:52:00
8:52 AM,9.0,-0.0,67,30.46,-9999.0,North,4.6,-,N/A,,Unknown,360,2014-02-02 14:52:00
9:52 AM,10.0,-0.0,64,30.46,-9999.0,Variable,4.6,-,N/A,,Unknown,0,2014-02-02 15:52:00
10:52 AM,12.0,1.0,61,30.48,-9999.0,North,4.6,-,N/A,,Unknown,350,2014-02-02 16:52:00
11:52 AM,12.9,-0.0,56,30.49,-9999.0,Calm,Calm,-,N/A,,Unknown,0,2014-02-02 17:52:00
12:52 PM,15.1,1.0,54,30.46,-9999.0,Calm,Calm,-,N/A,,Unknown,0,2014-02-02 18:52:00
1:52 PM,16.0,-0.0,49,30.45,-9999.0,North,5.8,-,N/A,,Unknown,10,2014-02-02 19:52:00
2:52 PM,19.0,-0.0,43,30.45,-9999.0,Calm,Calm,-,N/A,,Unknown,0,2014-02-02 20:52:00
3:52 PM,18.0,1.0,48,30.44,-9999.0,NE,3.5,-,N/A,,Unknown,50,2014-02-02 21:52:00
4:52 PM,17.1,-0.0,47,30.43,-9999.0,North,3.5,-,N/A,,Unknown,350,2014-02-02 22:52:00
5:52 PM,9.0,-2.0,61,30.44,-9999.0,Calm,Calm,-,N/A,,Unknown,0,2014-02-02 23:52:00
6:52 PM,1.0,-7.1,69,30.47,-9999.0,Calm,Calm,-,N/A,,Unknown,0,2014-02-03 00:52:00
7:52 PM,-2.0,-8.0,76,30.46,-9999.0,Calm,Calm,-,N/A,,Unknown,0,2014-02-03 01:52:00
8:52 PM,-4.0,-9.9,76,30.47,-9999.0,Calm,Calm,-,N/A,,Unknown,0,2014-02-03 02:52:00
9:52 PM,-6.0,-11.9,75,30.47,-9999.0,Calm,Calm,-,N/A,,Unknown,0,2014-02-03 03:52:00
10:52 PM,-7.1,-11.9,79,30.46,-9999.0,Calm,Calm,-,N/A,,Unknown,0,2014-02-03 04:52:00
11:52 PM,-8.0,-13.0,79,30.47,-9999.0,Calm,Calm,-,N/A,,Unknown,0,2014-02-03 05:52:00